Regional Weather Roundup
Issued by NWS Sterling, VA

Home | Current Version | Previous Version | Text Only | Print | Product List | Glossary Off
Versions: 1 2 3 4 5 6 7 8 9 10 11 12 13 14 15 16 17 18 19 20 21 22 23 24 25 26 27 28 29 30 31 32 33 34 35 36 37 38 39 40 41 42 43 44 45 46 47 48 49 50

000
ASUS41 KLWX 011510
RWRLWX

REGIONAL WEATHER ROUNDUP
NATIONAL WEATHER SERVICE BALTIMORE MD/WASHINGTON DC
1100 AM EDT FRI AUG 01 2014

Note: "FAIR" indicates few or no clouds below 12,000 feet
with no significant weather and/or obstructions to visibility.
 TC=TEMPERATURE CELSIUS

 * =Non NWS site. Station does not report precipitation (e.g. rain,
    snow, etc.), thunder, or fog.

DCZ001-MDZ009-015-VAZ040>042-051-053>054-011600-
WASHINGTON METRO
  /KDAA//-FT BELVOIR

CITY           SKY/WX    TMP DP  RH WIND       PRES   REMARKS
WASHINGTON NAT LGT RAIN  78  68  71 S5        30.20R
DULLES         CLOUDY    74  65  73 S6        30.19R
ANDREWS AFB    CLOUDY    75  68  78 SW7       30.20R
QUANTICO       LGT RAIN  75  68  78 W3        30.21R
COLLEGE PARK*  CLOUDY    77  68  73 CALM      30.19R
LEESBURG*      CLOUDY    77  70  78 SW5       30.20S
MANASSAS*      MOSUNNY   73  70  88 SW7       30.20R
GAITHERSBURG*  CLOUDY    75  66  73 SW6       30.24R

$$

MDZ006>007-011-014-011600-
BALTIMORE METRO

CITY           SKY/WX    TMP DP  RH WIND       PRES   REMARKS
BWI AIRPORT    CLOUDY    76  68  76 SW5       30.19R
MD SCIENCE CTR   N/A     78  68  71 MISG      30.19R
MARTIN STATE   CLOUDY    79  72  78 S6        30.20R
ANNAPOLIS      CLOUDY    76  67  73 SW3       30.19R
FORT MEADE*    CLOUDY    73  68  83 SW3       30.21R

$$

MDZ012-015-019>023-011600-
MARYLAND EASTERN SHORE

CITY           SKY/WX    TMP DP  RH WIND       PRES   REMARKS
OCEAN CITY     LGT RAIN  75  68  78 CALM      30.21R
SALISBURY      CLOUDY    79  66  64 CALM      30.20R
BAY BRIDGE AP*   N/A     77  66  69 S3        30.20R
CAMBRIDGE*     CLOUDY    77  66  69 CALM      30.20R
EASTON*        CLOUDY    81  68  65 W6        30.23R

$$

MDZ017>025-011600-
SOUTHERN MARYLAND

CITY           SKY/WX    TMP DP  RH WIND       PRES   REMARKS
PATUXENT RIVER LGT RAIN  73  68  84 CALM      30.20R FOG
ST INIGOES     LGT RAIN  74  66  76 W3        30.20R
LEONARDTOWN*   CLOUDY    72  66  83 SW6       30.22R

$$

MDZ003>005-011600-
NORTH CENTRAL MARYLAND

CITY           SKY/WX    TMP DP  RH WIND       PRES   REMARKS
FREDERICK*     MOSUNNY   75  72  88 SW6       30.21R HAZE
HAGERSTOWN APT CLOUDY    76  64  66 S6        30.19R
WESTMINSTER*   CLOUDY    75  72  88 SW6       30.20R

$$

MDZ501>502-011600-
WESTERN MARYLAND

CITY           SKY/WX    TMP DP  RH WIND       PRES   REMARKS
OAKLAND*       CLOUDY    68  61  77 SE7       30.25R
CUMBERLAND*    CLOUDY    72  63  73 CALM      30.23S

$$

VAZ025>031-011600-
SHENANDOAH VALLEY

CITY           SKY/WX    TMP DP  RH WIND       PRES   REMARKS
WINCHESTER*    CLOUDY    73  64  73 SW5       30.20S
STAUNTON*      DRIZZLE   68  64  87 CALM      30.25R

$$

WVZ021-048>050-054>055-011600-
EASTERN WEST VIRGINIA PANHANDLE

CITY           SKY/WX    TMP DP  RH WIND       PRES   REMARKS
MARTINSBURG    CLOUDY    74  62  66 S3        30.19R
PETERSBURG*    CLOUDY    69  59  68 CALM      30.21R

$$

VAZ036>039-050-011600-
CENTRAL FOOTHILLS

CITY           SKY/WX    TMP DP  RH WIND       PRES   REMARKS
CHARLOTTESVILL LGT RAIN  69  65  86 CALM      30.21R
ORANGE*        LGT RAIN  68  66  94 SE3       30.23S

$$

VAZ055>057-011600-
NORTH AND CENTRAL PIEDMONT

CITY           SKY/WX    TMP DP  RH WIND       PRES   REMARKS
FREDERICKSBRG* DRIZZLE   73  71  92 W6        30.20R
STAFFORD*      DRIZZLE   72  72 100 W5        30.25R

$$

NCZ024-NYZ072-PAZ021-071-VAZ022-071-011600-
OTHER REGIONAL OBSERVATIONS

CITY           SKY/WX    TMP DP  RH WIND       PRES   REMARKS
NEW YORK CITY  SUNNY     80  66  62 CALM      30.22R
PHILADELPHIA   PTSUNNY   80  69  69 S6        30.19R
PITTSBURGH     PTSUNNY   75  60  59 E3        30.17R
ROANOKE        RAIN      66  63  90 NE5       30.23S FOG
RICHMOND       CLOUDY    74  68  81 CALM      30.20R
RALEIGH        CLOUDY    74  67  78 NE9       30.13R

$$

ANZ530>537-011600-
MARINE OBSERVATIONS

STATION/POSITION TIME  TEMP    WIND        PRES
                       AIR SEA DIR/SP/G
                 (UTC) (F)     (DEG/KT/KT) (MB)
THOMAS PT LIGHT  1500   75 78  220/  7/  8 1023.0R
BALT KEY BRIDGE  1500          210/  4/  5 1021.9R
COVE POINT       1500   74     240/  5/  6 1022.7R
LEWISETTA        1500   74 78  310/  2/  3 1022.5R
SOLOMONS ISLAND  1500      79                N/A
PINEY POINT      1500          280/  3/  4   N/A

$$



USA.gov is the U.S. government's official web portal to all federal, state and local government web resources and services.